DW9007 Weather Reports


Display with metric or nautical units.
time (UTC)temp
F
wind
direction
speed
MPH
gust
MPH
rain 1hr
in
rain 24hr
in
rain mn
in
humidity
%
barometer
mb
20260503020057 55 185 0.0 0.0 0.00 0.00 0.00 65 1016.3
20260503014553 55 185 0.0 0.0 0.00 0.00 0.00 63 1016.1
20260503013033 56 185 0.0 0.0 0.00 0.00 0.00 61 1015.9
20260503011520 57 185 0.0 0.0 0.00 0.00 0.00 58 1015.6
20260503010104 58 185 0.0 0.0 0.00 0.00 0.00 56 1015.5
20260503004555 60 185 0.0 0.0 0.00 0.00 0.00 53 1015.4
20260503003031 61 185 0.0 0.0 0.00 0.00 0.00 50 1015.2
20260503001527 63 185 0.0 0.0 0.00 0.00 0.00 47 1015.1
20260503000008 64 65 0.0 2.0 0.00 0.00 0.00 43 1014.8
20260502234506 64 33 0.0 6.0 0.00 0.00 0.00 42 1014.6
20260502233047 65 17 1.0 4.0 0.00 0.00 0.00 41 1014.6
20260502231612 66 46 1.0 5.0 0.00 0.00 0.00 42 1014.5
20260502230034 65 250 0.0 6.0 0.00 0.00 0.00 42 1014.6
20260502224534 65 80 0.0 3.0 0.00 0.00 0.00 43 1014.6
20260502223031 66 80 1.0 6.0 0.00 0.00 0.00 41 1014.6
20260502221534 67 42 2.0 7.0 0.00 0.00 0.00 39 1014.5
20260502220030 67 57 2.0 6.0 0.00 0.00 0.00 39 1014.4
20260502214529 67 86 1.0 7.0 0.00 0.00 0.00 42 1014.4
20260502213029 68 350 1.0 8.0 0.00 0.00 0.00 40 1014.4
20260502211528 67 84 4.0 10.0 0.00 0.00 0.00 41 1014.4
20260502210008 67 29 3.0 9.0 0.00 0.00 0.00 41 1014.5
20260502204508 68 148 2.0 11.0 0.00 0.00 0.00 42 1014.4
20260502203049 67 5 2.0 10.0 0.00 0.00 0.00 42 1014.5
20260502201547 67 105 2.0 8.0 0.00 0.00 0.00 42 1014.6
20260502200029 67 123 4.0 9.0 0.00 0.00 0.00 41 1014.6
20260502194525 66 238 1.0 10.0 0.00 0.00 0.00 43 1014.6
20260502193007 66 240 2.0 11.0 0.00 0.00 0.00 40 1014.9
20260502191506 66 59 2.0 9.0 0.00 0.00 0.00 41 1014.7
20260502190050 66 96 4.0 9.0 0.00 0.00 0.00 44 1014.7
20260502184550 65 44 2.0 13.0 0.00 0.00 0.00 43 1014.8
20260502183022 65 41 2.0 10.0 0.00 0.00 0.00 47 1014.9
20260502181520 64 74 1.0 7.0 0.00 0.00 0.00 49 1015.1
20260502163011 59 9 1.0 13.0 0.00 0.00 0.00 57 1015.9
20260502161503 58 355 2.0 8.0 0.00 0.00 0.00 60 1015.9
20260502160104 58 338 1.0 5.0 0.00 0.00 0.00 62 1015.8
20260502151525 55 113 2.0 8.0 0.00 0.00 0.00 70 1015.6
20260502130105 52 52 1.0 3.0 0.00 0.00 0.00 73 1014.1
20260502123049 52 53 0.0 5.0 0.00 0.00 0.00 72 1013.9
20260502121525 52 99 1.0 6.0 0.00 0.00 0.00 71 1013.8
20260502114506 52 72 0.0 2.0 0.00 0.00 0.00 71 1013.5
20260502113054 52 87 0.0 1.0 0.00 0.00 0.00 71 1013.4
20260502111554 52 88 0.0 3.0 0.00 0.00 0.00 70 1013.3
20260502110052 52 59 0.0 3.0 0.00 0.00 0.00 70 1013.0
20260502104553 52 66 0.0 2.0 0.00 0.00 0.00 70 1012.7
20260502103050 53 49 0.0 4.0 0.00 0.00 0.00 69 1013.0
20260502101555 53 11 1.0 5.0 0.00 0.00 0.00 69 1012.9
20260502091527 54 355 0.0 4.0 0.00 0.00 0.00 71 1012.8
20260502071511 55 49 2.0 5.0 0.00 0.00 0.00 79 1013.0
20260502070051 56 29 0.0 5.0 0.00 0.00 0.00 81 1013.2
20260502064551 56 14 0.0 5.0 0.00 0.00 0.00 82 1013.3
20260502063043 56 44 0.0 4.0 0.00 0.00 0.00 84 1013.5
20260502061531 57 70 0.0 3.0 0.00 0.00 0.00 84 1013.4
20260502060012 57 320 0.0 2.0 0.00 0.00 0.00 85 1013.3
20260502054521 57 42 0.0 2.0 0.00 0.00 0.00 85 1013.1
20260502053113 56 76 0.0 0.0 0.00 0.00 0.00 85 1013.0
20260502051600 57 76 0.0 0.0 0.00 0.00 0.00 85 1013.1
20260502050053 57 76 0.0 0.0 0.00 0.00 0.00 85 1012.9
20260502044536 57 76 0.0 0.0 0.00 0.00 0.00 86 1012.9
20260502043035 57 76 0.0 0.0 0.00 0.00 0.00 86 1012.9
20260502041524 57 74 0.0 0.0 0.00 0.00 0.00 86 1012.6
20260502040018 56 74 0.0 1.0 0.00 0.00 0.00 86 1012.9
20260502034605 57 72 0.0 0.0 0.00 0.00 0.00 87 1012.6
20260502033106 57 72 0.0 0.0 0.00 0.00 0.00 87 1012.8
20260502031539 57 72 0.0 0.0 0.00 0.00 0.00 87 1013.1
20260502030037 57 72 0.0 0.0 0.00 0.00 0.00 87 1013.4
20260502024520 57 72 0.0 0.0 0.00 0.00 0.00 85 1013.5
20260502023017 58 72 0.0 0.0 0.00 0.00 0.00 85 1013.5
20260502021606 58 72 0.0 0.0 0.00 0.00 0.00 84 1013.6